Location: Lafig�re
(44.4503°N, 4.0357°E)
Time: 17:37:03
(UTC+00:00)

deb Explorer IX - Pass Details

Date: 30 January 2021
Orbit: 537 x 1102 km, 38.8° (Epoch: 04 March)

Event Time Altitude Azimuth Distance (km) Brightness Sun altitude
Rises 13:56:04 0° 216° (SW) 3,901 ? 22.4°
Reaches altitude 10° 13:59:18 10° 205° (SSW) 2,946 ? 22.1°
Maximum altitude 14:05:07 26° 152° (SSE) 1,949 ? 21.5°
Drops below altitude 10° 14:10:41 10° 98° (E) 2,804 ? 21.0°
Sets 14:13:40 0° 87° (E) 3,680 ? 20.7°
